Location: Luxembourg
(49.6117°N, 6.1300°E)
Time: 04:14:27
(UTC+01:00)

OTV 5 (USA 277) - Pass Details

Date: 01 February 2019
Orbit: 342 x 346 km, 54.5° (Epoch: 09 February)

Event Time Altitude Azimuth Distance (km) Brightness Sun altitude
Exits shadow 05:35:40 21° 75° (ENE) 850 ? -24.8°
Drops below altitude 10° 05:36:48 10° 68° (ENE) 1,297 ? -24.6°
Sets 05:38:49 0° 64° (ENE) 2,141 ? -24.3°
